Weather History for Garrison, ND

Change the Weather History Date:

Thursday, May 9, 2013

  Actual Average Record
Temperature  
Mean Temperature 48 °F -  
Max Temperature 62 °F 59 °F 84 °F (2007)
Min Temperature 33 °F 36 °F 28 °F (2014)
Degree Days  
Heating Degree Days 18    
Moisture  
Dew Point 22 °F    
Average Humidity 44    
Maximum Humidity 69    
Minimum Humidity 19    
Precipitation  
Precipitation 0.00 in - - ()
Month to date precipitation 0.00  
Year to date precipitation 3.86  
Sea Level Pressure  
Sea Level Pressure 30.26 in    
Wind  
Wind Speed 10 mph (ENE)    
Max Wind Speed 17 mph    
Max Gust Speed 22 mph    
Averages and records for this station are not official NWS values.
T = Trace of Precipitation, MM = Missing Value Source: NWS Daily Summary

Daily Weather History Graph

Daily Weather History Graph

Search for Another Location

Airport:

Trip Planner

Search our weather history database for the weather conditions in past years. The results will help you decide how hot, cold, wet, or windy it might be!

Date:

Astronomy

May. 09, 2013 Rise Set
Actual Time 6:15 AM CDT 9:09 PM CDT
Civil Twilight 5:40 AM CDT 9:45 PM CDT
Nautical Twilight 4:54 AM CDT 10:31 PM CDT
Astronomical Twilight 3:59 AM CDT 11:26 PM CDT
Moon 6:03 AM CDT (5/9) 9:05 PM CDT (5/9)
Length of Visible Light 16h 05m
Length of Day
14h 53m
Waning Crescent, 0% of the Moon is Illuminated
May 9
Waning Crescent
May 9
New
May 17
First Quarter
May 24
Full
May 31
Last Quarter

Hourly Weather History & Observations

Time (CDT) Temp. Windchill Dew Point Humidity Pressure Visibility Wind Dir Wind Speed Gust Speed Precip Events Conditions
12:52 AM 41.0 °F 35.8 °F 24.1 °F 51% 30.26 in - ENE 8.1 mph - N/A   Unknown
1:52 AM 39.9 °F 35.8 °F 23.0 °F 51% 30.27 in - ENE 5.8 mph - N/A   Unknown
2:52 AM 37.9 °F 32.1 °F 23.0 °F 55% 30.27 in - NE 8.1 mph - N/A   Unknown
3:52 AM 36.0 °F 30.3 °F 21.9 °F 57% 30.27 in - NE 6.9 mph - N/A   Unknown
4:52 AM 33.1 °F 25.5 °F 24.1 °F 70% 30.27 in - NNE 9.2 mph - N/A   Unknown
5:52 AM 33.1 °F 25.5 °F 23.0 °F 66% 30.27 in - NNE 9.2 mph - N/A   Unknown
6:52 AM 34.0 °F 26.0 °F 21.9 °F 61% 30.29 in - NNE 10.4 mph - N/A   Unknown
7:52 AM 37.0 °F 31.6 °F 21.9 °F 54% 30.31 in - NE 6.9 mph - N/A   Unknown
8:52 AM 41.0 °F 34.7 °F 23.0 °F 49% 30.32 in - ENE 10.4 mph - N/A   Unknown
9:52 AM 45.0 °F 39.7 °F 24.1 °F 44% 30.32 in - ENE 10.4 mph - N/A   Unknown
10:52 AM 50.0 °F - 24.1 °F 36% 30.30 in - East 12.7 mph 21.9 mph N/A   Unknown
11:52 AM 53.1 °F - 23.0 °F 31% 30.30 in - ENE 10.4 mph - N/A   Unknown
12:52 PM 55.9 °F - 21.0 °F 26% 30.29 in - East 12.7 mph 19.6 mph N/A   Unknown
1:52 PM 57.0 °F - 19.0 °F 23% 30.27 in - ENE 8.1 mph 17.3 mph N/A   Unknown
2:52 PM 59.0 °F - 19.0 °F 21% 30.26 in - Variable 6.9 mph 17.3 mph N/A   Unknown
3:52 PM 60.1 °F - 19.9 °F 21% 30.24 in - East 9.2 mph - N/A   Unknown
4:52 PM 61.0 °F - 19.9 °F 21% 30.22 in - ESE 11.5 mph 18.4 mph N/A   Unknown
5:52 PM 61.0 °F - 19.0 °F 20% 30.21 in - ESE 13.8 mph - N/A   Unknown
6:52 PM 60.1 °F - 18.0 °F 20% 30.20 in - East 10.4 mph - N/A   Unknown
7:52 PM 57.9 °F - 21.0 °F 24% 30.19 in - East 9.2 mph - N/A   Unknown
8:52 PM 52.0 °F - 21.9 °F 31% 30.21 in - East 6.9 mph - N/A   Unknown
9:52 PM 48.0 °F - 25.0 °F 41% 30.22 in - East 6.9 mph - N/A   Unknown
10:52 PM 45.0 °F 41.2 °F 26.1 °F 48% 30.22 in - East 6.9 mph - N/A   Unknown
11:52 PM 41.0 °F - 26.1 °F 55% 30.22 in - Calm Calm - N/A   Unknown